"TOA5","MOW","CPU:UNC_MeetingWaters","DataHourly"
"TIMESTAMP","SondeTempC","SpCond","DOSat","DOmg","pH","Turb","BattVolt_Min"
"TS","","","","","","",""
"","Smp","Smp","Smp","Smp","Smp","Smp","Min"
"2002-04-01 00:00:00",13.6700000763,0.082999996841,103.199996948,10.7100000381,6.63000011444,104.400001526,12.4600000381
"2002-04-01 01:00:00",13.6300001144,0.108000002801,101.599998474,10.5600004196,6.71999979019,64.4000015259,12.4499998093
"2002-04-01 02:00:00",13.8299999237,0.105999998748,99.1999969482,10.2600002289,6.67999982834,64.1999969482,12.4399995804
"2002-04-01 03:00:00",13.6899995804,0.125,97.4000015259,10.1099996567,6.69000005722,49.9000015259,12.4399995804
"2002-04-01 04:00:00",13.529999733,0.144999995828,96.9000015259,10.0900001526,6.73999977112,54.0,12.4300003052
"2002-04-01 05:00:00",13.3400001526,0.16099999845,96.9000015259,10.1300001144,6.73000001907,43.7000007629,12.4200000763
"2002-04-01 06:00:00",13.0900001526,0.175999999046,97.4000015259,10.2399997711,6.73999977112,39.2000007629,12.3999996185
"2002-04-01 07:00:00",12.8800001144,0.187000006437,97.3000030518,10.279999733,6.78000020981,34.2000007629,12.3999996185
"2002-04-01 08:00:00",12.9300003052,0.197999998927,99.3000030518,10.4799995422,6.82000017166,31.0,12.6599998474
"2002-04-01 09:00:00",13.4200000763,0.206000000238,101.900001526,10.6300001144,6.94999980927,30.1000003815,13.4200000763
"2002-04-01 10:00:00",14.1099996567,0.21400000155,104.199996948,10.7100000381,7.01999998093,25.7000007629,13.3400001526
"2002-04-01 11:00:00",15.0500001907,0.248999997973,104.800003052,10.5500001907,7.01000022888,21.8999996185,13.3000001907
"2002-04-01 12:00:00",16.1700000763,0.263999998569,106.199996948,10.4399995804,7.11999988556,22.8999996185,13.279999733
"2002-04-01 13:00:00",16.9099998474,0.233999997377,104.699996948,10.1300001144,7.11000013351,21.5,13.2700004578
"2002-04-01 14:00:00",17.4699993134,0.228000000119,103.400001526,9.89000034332,7.09000015259,18.2999992371,13.2399997711
"2002-04-01 15:00:00",17.6399993896,0.230000004172,99.0999984741,9.44999980927,7.03000020981,18.1000003815,13.2100000381
"2002-04-01 16:00:00",17.5,0.234999999404,97.1999969482,9.28999996185,6.98000001907,17.7000007629,13.1899995804
"2002-04-01 17:00:00",17.1299991608,0.244000002742,94.0,9.06000041962,6.94000005722,18.0,12.8699998856
"2002-04-01 18:00:00",16.8099994659,0.250999987125,92.1999969482,8.93999958038,6.88999986649,16.2999992371,12.7899999619
"2002-04-01 19:00:00",16.2900009155,0.259999990463,89.5999984741,8.78999996185,6.86999988556,14.8999996185,12.75
"2002-04-01 20:00:00",15.7100000381,0.268999993801,89.5999984741,8.89000034332,6.84999990463,12.6000003815,12.720000267
"2002-04-01 21:00:00",15.1599998474,0.270999997854,88.9000015259,8.93000030518,6.84000015259,12.6000003815,12.6899995804
"2002-04-01 22:00:00",14.6300001144,0.272000014782,89.4000015259,9.07999992371,6.84999990463,13.6000003815,12.6599998474
"2002-04-01 23:00:00",14.1599998474,0.272000014782,90.4000015259,9.27999973297,6.84000015259,13.6000003815,12.6400003433
"2002-04-02 00:00:00",13.7399997711,0.277000010014,91.4000015259,9.46000003815,6.86000013351,12.5,12.6199998856
"2002-04-02 01:00:00",13.2899999619,0.280999988317,91.9000015259,9.61999988556,6.86999988556,11.1000003815,12.6000003815
"2002-04-02 02:00:00",12.9300003052,0.282000005245,92.0,9.69999980927,6.88999986649,9.69999980927,12.5900001526
"2002-04-02 03:00:00",12.6199998856,0.280999988317,92.6999969482,9.84000015259,6.90000009537,9.0,12.5799999237
"2002-04-02 04:00:00",12.3299999237,0.280000001192,93.0,9.93999958038,6.92000007629,8.10000038147,12.5600004196
"2002-04-02 05:00:00",12.0500001907,0.277999997139,93.8000030518,10.0900001526,6.92999982834,7.90000009537,12.5600004196
"2002-04-02 06:00:00",11.8100004196,0.275999993086,93.1999969482,10.0799999237,6.92999982834,7.30000019073,12.5399999619
"2002-04-02 07:00:00",11.6099996567,0.273999989033,93.1999969482,10.1199998856,6.94999980927,7.0,12.529999733
"2002-04-02 08:00:00",11.6000003815,0.273000001907,98.0,10.6499996185,6.96999979019,7.40000009537,12.7899999619
"2002-04-02 09:00:00",12.3900003433,0.273000001907,101.599998474,10.8500003815,7.07000017166,7.0,13.4899997711
"2002-04-02 10:00:00",13.4099998474,0.272000014782,105.400001526,10.9899997711,7.11000013351,6.69999980927,13.3400001526
"2002-04-02 11:00:00",14.720000267,0.270000010729,108.0,10.9499998093,7.13000011444,6.09999990463,13.25
"2002-04-02 12:00:00",15.9899997711,0.266999989748,107.199996948,10.5699996948,7.13999986649,5.69999980927,13.2100000381
"2002-04-02 13:00:00",17.4099998474,0.268000006676,106.5,10.1999998093,7.23999977112,5.0,13.1700000763
"2002-04-02 14:00:00",18.3299999237,0.273000001907,106.099998474,9.97000026703,7.09999990463,5.90000009537,13.1199998856
"2002-04-02 15:00:00",18.6900005341,0.270000010729,103.5,9.64999961853,7.07000017166,5.90000009537,13.0799999237
"2002-04-02 16:00:00",18.5300006866,0.268000006676,100.699996948,9.42000007629,7.05000019073,4.5,13.0699996948
"2002-04-02 17:00:00",18.0699996948,0.266000002623,93.6999969482,8.85000038147,7.01999998093,7.30000019073,12.8599996567
"2002-04-02 18:00:00",17.8099994659,0.270999997854,89.1999969482,8.47000026703,7.01000022888,4.09999990463,12.8000001907
"2002-04-02 19:00:00",17.5100002289,0.272000014782,84.4000015259,8.06999969482,6.96999979019,4.09999990463,12.7700004578
"2002-04-02 20:00:00",17.2700004578,0.280000001192,84.5,8.10999965668,6.94999980927,3.90000009537,12.7299995422
"2002-04-02 21:00:00",16.8700008392,0.296000003815,84.1999969482,8.14999961853,6.94000005722,3.40000009537,12.7100000381
"2002-04-02 22:00:00",16.5100002289,0.298000007868,83.6999969482,8.17000007629,6.92999982834,2.90000009537,12.6800003052
"2002-04-02 23:00:00",16.1599998474,0.300000011921,86.0,8.46000003815,6.92999982834,2.5,12.6499996185
"2002-04-03 00:00:00",15.8500003815,0.300999999046,86.4000015259,8.55000019073,6.92999982834,2.70000004768,12.6400003433
"2002-04-03 01:00:00",15.6000003815,0.305000007153,87.5999984741,8.71000003815,6.92999982834,2.40000009537,12.6199998856
"2002-04-03 02:00:00",15.3599996567,0.33599999547,89.0999984741,8.90999984741,6.94999980927,2.40000009537,12.6099996567
"2002-04-03 03:00:00",15.0600004196,0.368999987841,89.5999984741,9.01000022888,6.96000003815,1.70000004768,12.5799999237
"2002-04-03 04:00:00",14.8000001907,0.381000012159,90.4000015259,9.14000034332,6.98000001907,1.70000004768,12.5699996948
"2002-04-03 05:00:00",14.529999733,0.372000008821,90.0999984741,9.17000007629,6.98999977112,1.60000002384,12.5600004196
"2002-04-03 06:00:00",14.279999733,0.354000002146,90.9000015259,9.30000019073,7.01000022888,1.5,12.5399999619
"2002-04-03 07:00:00",14.220000267,0.342000007629,92.8000030518,9.51000022888,7.0,2.40000009537,12.5600004196
"2002-04-03 08:00:00",14.5,0.326000005007,95.8000030518,9.76000022888,7.03000020981,1.60000002384,12.6300001144
"2002-04-03 09:00:00",15.1899995804,0.310000002384,101.699996948,10.1999998093,7.09000015259,1.39999997616,13.3299999237
"2002-04-03 10:00:00",16.1900005341,0.303000003099,105.400001526,10.3500003815,7.15000009537,1.39999997616,13.220000267
"2002-04-03 11:00:00",17.4099998474,0.296000003815,104.400001526,10.0,7.11999988556,1.10000002384,13.1599998474
"2002-04-03 12:00:00",18.6000003815,0.291999995708,103.800003052,9.69999980927,7.23000001907,1.29999995232,12.9899997711
"2002-04-03 13:00:00",19.2099990845,0.289999991655,100.800003052,9.31000041962,7.15000009537,1.39999997616,12.8900003433
"2002-04-03 14:00:00",19.6499996185,0.291000008583,101.099998474,9.25,7.26000022888,1.60000002384,13.0500001907
"2002-04-03 15:00:00",19.9300003052,0.296000003815,101.0,9.18999958038,7.17000007629,1.60000002384,13.0100002289
"2002-04-03 16:00:00",19.8999996185,0.293999999762,98.8000030518,8.98999977112,7.13999986649,1.20000004768,13.0
"2002-04-03 17:00:00",19.75,0.286000013351,94.4000015259,8.61999988556,7.11000013351,1.29999995232,12.8199996948
"2002-04-03 18:00:00",19.5200004578,0.279000014067,88.3000030518,8.10000038147,7.07999992371,1.10000002384,12.779999733
"2002-04-03 19:00:00",19.0300006866,0.275999993086,84.0999984741,7.78999996185,7.03000020981,0.899999976158,12.75
"2002-04-03 20:00:00",18.2199993134,0.277000010014,81.8000030518,7.71000003815,6.98000001907,0.899999976158,12.720000267
"2002-04-03 21:00:00",17.4500007629,0.280999988317,80.9000015259,7.73999977112,6.94000005722,0.899999976158,12.6800003052
"2002-04-03 22:00:00",16.6800003052,0.286000013351,80.8000030518,7.84999990463,6.92000007629,1.39999997616,12.6499996185
"2002-04-03 23:00:00",16.1100006104,0.291000008583,80.0,7.86999988556,6.92000007629,1.29999995232,12.6199998856
"2002-04-04 00:00:00",15.4799995422,0.293999999762,80.4000015259,8.02000045776,6.90999984741,1.39999997616,12.6000003815
"2002-04-04 01:00:00",15.0200004578,0.298999994993,83.5999984741,8.42000007629,6.92999982834,1.89999997616,12.5699996948
"2002-04-04 02:00:00",14.5,0.301999986172,84.8000030518,8.63000011444,6.94000005722,1.79999995232,12.5500001907
"2002-04-04 03:00:00",14.1400003433,0.307000011206,86.3000030518,8.85999965668,6.94999980927,2.90000009537,12.5399999619
"2002-04-04 04:00:00",13.4600000381,0.305000007153,86.9000015259,9.05000019073,6.96999979019,1.70000004768,12.5200004578
"2002-04-04 05:00:00",13.279999733,0.300000011921,88.1999969482,9.22000026703,6.96999979019,1.20000004768,12.4899997711
"2002-04-04 06:00:00",12.6899995804,0.298999994993,88.9000015259,9.43000030518,6.98000001907,1.29999995232,12.4799995422
"2002-04-04 07:00:00",12.4600000381,0.294999986887,92.1999969482,9.82999992371,6.98999977112,0.899999976158,12.4899997711
"2002-04-04 08:00:00",12.220000267,0.291000008583,96.0999984741,10.2899999619,7.01999998093,0.899999976158,12.9200000763
"2002-04-04 09:00:00",12.5,0.287999987602,101.800003052,10.8400001526,7.09999990463,0.699999988079,13.529999733
"2002-04-04 10:00:00",12.9600000381,0.286000013351,105.900001526,11.1599998474,7.17999982834,0.5,13.4799995422
"2002-04-04 11:00:00",13.6899995804,0.282999992371,108.400001526,11.2399997711,7.19999980927,0.899999976158,13.4499998093
"2002-04-04 12:00:00",14.779999733,0.279000014067,110.800003052,11.220000267,7.26000022888,0.699999988079,13.4399995804
"2002-04-04 13:00:00",15.7899999619,0.277000010014,110.900001526,10.9799995422,7.26999998093,0.600000023842,13.4300003052
"2002-04-04 14:00:00",16.2900009155,0.282000005245,109.800003052,10.7700004578,7.26999998093,0.899999976158,13.3900003433
"2002-04-04 15:00:00",16.2199993134,0.289999991655,110.300003052,10.8299999237,7.26999998093,1.10000002384,13.3599996567
"2002-04-04 16:00:00",15.7600002289,0.294999986887,103.5,10.2600002289,7.26999998093,1.10000002384,13.3299999237
"2002-04-04 17:00:00",15.2899999619,0.300999999046,99.1999969482,9.93000030518,7.19999980927,1.10000002384,12.8800001144
"2002-04-04 18:00:00",14.9099998474,0.301999986172,95.0999984741,9.60000038147,7.13999986649,1.10000002384,12.779999733
"2002-04-04 19:00:00",14.4799995422,0.298000007868,90.3000030518,9.19999980927,7.07999992371,1.0,12.7299995422
"2002-04-04 20:00:00",14.0500001907,0.289999991655,88.1999969482,9.06999969482,7.01999998093,0.800000011921,12.6999998093
"2002-04-04 21:00:00",13.3900003433,0.282999992371,87.5,9.13000011444,6.98999977112,0.899999976158,12.6599998474
"2002-04-04 22:00:00",13.1199998856,0.279000014067,88.0999984741,9.25,6.96000003815,0.699999988079,12.6400003433
"2002-04-04 23:00:00",12.720000267,0.277000010014,89.6999969482,9.5,6.96000003815,0.800000011921,12.6099996567
"2002-04-05 00:00:00",12.3299999237,0.277000010014,91.3000030518,9.76000022888,6.98000001907,1.29999995232,12.5799999237
"2002-04-05 01:00:00",11.8900003433,0.279000014067,92.4000015259,9.97999954224,7.0,1.60000002384,12.5600004196
"2002-04-05 02:00:00",11.5,0.282999992371,93.4000015259,10.1700000763,7.01000022888,1.39999997616,12.5200004578
"2002-04-05 03:00:00",11.2299995422,0.284999996424,93.4000015259,10.2399997711,7.01999998093,1.20000004768,12.4799995422
"2002-04-05 04:00:00",10.9200000763,0.282000005245,94.1999969482,10.3999996185,7.03999996185,0.800000011921,12.4600000381
"2002-04-05 05:00:00",10.7100000381,0.282999992371,94.5999984741,10.4899997711,7.05000019073,0.699999988079,12.4399995804
"2002-04-05 06:00:00",10.4200000763,0.282000005245,95.5,10.6700000763,7.05000019073,0.699999988079,12.4200000763
"2002-04-05 07:00:00",10.1599998474,0.280000001192,96.9000015259,10.8800001144,7.07000017166,0.300000011921,12.4200000763
"2002-04-05 08:00:00",10.1499996185,0.280999988317,100.400001526,11.279999733,7.07999992371,0.5,13.0500001907
"2002-04-05 09:00:00",10.7100000381,0.282999992371,106.5,11.8199996948,7.17000007629,0.10000000149,13.5799999237
"2002-04-05 10:00:00",11.3999996185,0.282999992371,110.0,12.0100002289,7.23000001907,0.0,13.5
"2002-04-05 11:00:00",12.2700004578,0.282000005245,111.300003052,11.9099998474,7.28000020981,0.20000000298,13.4600000381
"2002-04-05 12:00:00",13.6199998856,0.279000014067,113.199996948,11.7600002289,7.28999996185,0.5,13.4399995804
"2002-04-05 13:00:00",14.5900001526,0.277000010014,114.300003052,11.6199998856,7.32000017166,0.40000000596,13.4200000763
"2002-04-05 14:00:00",15.6099996567,0.282000005245,113.699996948,11.3100004196,7.30999994278,0.800000011921,13.3699998856
"2002-04-05 15:00:00",15.75,0.291999995708,113.300003052,11.2299995422,7.32999992371,1.0,13.3400001526
"2002-04-05 16:00:00",15.1999998093,0.307000011206,108.199996948,10.8599996567,7.30000019073,1.10000002384,13.3100004196
"2002-04-05 17:00:00",14.8800001144,0.317000001669,102.300003052,10.3299999237,7.26000022888,0.699999988079,12.8900003433
"2002-04-05 18:00:00",14.6400003433,0.319999992847,98.0999984741,9.96000003815,7.21999979019,0.699999988079,12.8000001907
"2002-04-05 19:00:00",14.2600002289,0.31400001049,92.4000015259,9.46000003815,7.17000007629,0.600000023842,12.7600002289
"2002-04-05 20:00:00",13.7899999619,0.307000011206,88.0,9.10000038147,7.09999990463,1.0,12.7100000381
"2002-04-05 21:00:00",13.3299999237,0.303000003099,84.8000030518,8.85999965668,7.03999996185,1.39999997616,12.6800003052
"2002-04-05 22:00:00",12.8900003433,0.298999994993,83.4000015259,8.80000019073,6.98999977112,1.5,12.6599998474
"2002-04-05 23:00:00",12.4600000381,0.293999999762,84.6999969482,9.02000045776,6.96999979019,1.79999995232,12.6199998856
"2002-04-06 00:00:00",12.0900001526,0.291999995708,86.4000015259,9.27999973297,6.96000003815,0.800000011921,12.6000003815
"2002-04-06 01:00:00",11.5399999619,0.294999986887,88.0,9.57999992371,6.96000003815,0.5,12.5600004196
"2002-04-06 02:00:00",11.2899999619,0.29699999094,89.4000015259,9.78999996185,6.96000003815,0.800000011921,12.5399999619
"2002-04-06 03:00:00",10.9399995804,0.300000011921,91.3000030518,10.0699996948,6.98000001907,0.10000000149,12.5100002289
"2002-04-06 04:00:00",10.5500001907,0.300000011921,92.6999969482,10.3199996948,7.01000022888,0.20000000298,12.4799995422
"2002-04-06 05:00:00",10.279999733,0.303999990225,93.0999984741,10.4300003052,7.03000020981,0.600000023842,12.4600000381
"2002-04-06 06:00:00",10.0200004578,0.298000007868,95.5999984741,10.779999733,7.05000019073,0.20000000298,12.4300003052
"2002-04-06 07:00:00",9.65999984741,0.294999986887,97.1999969482,11.0500001907,7.07000017166,0.0,12.4399995804
"2002-04-06 08:00:00",9.65999984741,0.293999999762,101.699996948,11.5600004196,7.09999990463,0.0,13.1800003052
"2002-04-06 09:00:00",10.3100004196,0.291000008583,108.300003052,12.1300001144,7.21999979019,0.800000011921,13.5699996948
"2002-04-06 10:00:00",10.6899995804,0.287000000477,111.900001526,12.4200000763,7.23999977112,0.0,13.5699996948
"2002-04-06 11:00:00",11.4099998474,0.286000013351,114.599998474,12.5100002289,7.30999994278,0.0,13.5200004578
"2002-04-06 12:00:00",12.9600000381,0.282999992371,118.0,12.4399995804,7.38999986649,0.300000011921,13.5100002289
"2002-04-06 13:00:00",13.0900001526,0.280000001192,115.699996948,12.1599998474,7.36999988556,0.10000000149,13.4899997711
"2002-04-06 14:00:00",13.2600002289,0.279000014067,114.5,11.9899997711,7.38000011444,0.0,13.1800003052
"2002-04-06 15:00:00",13.6400003433,0.277999997139,116.800003052,12.1199998856,7.42000007629,0.0,13.4399995804
"2002-04-06 16:00:00",13.4600000381,0.277000010014,112.0,11.6800003052,7.38000011444,0.300000011921,13.4200000763
"2002-04-06 17:00:00",13.1400003433,0.273999989033,107.400001526,11.279999733,7.34999990463,0.20000000298,12.8699998856
"2002-04-06 18:00:00",12.8199996948,0.280000001192,103.5,10.9399995804,7.32999992371,0.20000000298,12.7899999619
"2002-04-06 19:00:00",12.4200000763,0.289999991655,99.1999969482,10.5799999237,7.26000022888,0.20000000298,12.7399997711
"2002-04-06 20:00:00",11.9799995422,0.294999986887,95.9000015259,10.3299999237,7.19999980927,0.300000011921,12.6999998093
"2002-04-06 21:00:00",11.5500001907,0.294999986887,94.0999984741,10.2399997711,7.13999986649,0.5,12.6599998474
"2002-04-06 22:00:00",11.1300001144,0.291000008583,93.0999984741,10.2299995422,7.11000013351,0.699999988079,12.6400003433
"2002-04-06 23:00:00",10.720000267,0.287000000477,92.6999969482,10.279999733,7.07000017166,0.5,12.6099996567
"2002-04-07 00:00:00",10.3299999237,0.284000009298,92.5999984741,10.3699998856,7.05000019073,0.40000000596,12.5699996948
"2002-04-07 01:00:00",9.89999961853,0.282999992371,93.4000015259,10.5600004196,7.03999996185,0.40000000596,12.5500001907
"2002-04-07 02:00:00",9.52999973297,0.284000009298,94.8000030518,10.8100004196,7.03999996185,0.20000000298,12.5100002289
"2002-04-07 03:00:00",9.07999992371,0.284000009298,95.5,11.0100002289,7.03999996185,0.10000000149,12.4799995422
"2002-04-07 04:00:00",8.82999992371,0.287000000477,96.4000015259,11.1800003052,7.05000019073,0.0,12.4300003052
"2002-04-07 05:00:00",8.48999977112,0.287999987602,97.8000030518,11.4399995804,7.07000017166,0.300000011921,12.3999996185
"2002-04-07 06:00:00",8.19999980927,0.287000000477,98.9000015259,11.6499996185,7.09000015259,-0.10000000149,12.3699998856
"2002-04-07 07:00:00",8.02000045776,0.286000013351,100.599998474,11.8900003433,7.11000013351,-0.20000000298,12.3699998856
"2002-04-07 08:00:00",8.06000041962,0.282999992371,104.800003052,12.3800001144,7.15000009537,-0.10000000149,13.2700004578
"2002-04-07 09:00:00",8.90999984741,0.280999988317,111.699996948,12.9399995804,7.28999996185,-0.20000000298,13.6599998474
"2002-04-07 10:00:00",9.76000022888,0.280999988317,115.400001526,13.0900001526,7.28999996185,0.10000000149,13.5399999619
"2002-04-07 11:00:00",10.7899999619,0.284999996424,118.300003052,13.1000003815,7.28999996185,0.800000011921,13.5
"2002-04-07 12:00:00",12.3100004196,0.280999988317,120.0,12.8299999237,7.34000015259,0.0,13.470000267
"2002-04-07 13:00:00",13.720000267,0.279000014067,123.5,12.8000001907,7.42000007629,0.10000000149,13.4399995804
"2002-04-07 14:00:00",14.2899999619,0.27500000596,120.199996948,12.3000001907,7.44000005722,-0.10000000149,13.3800001144
"2002-04-07 15:00:00",14.3599996567,0.272000014782,118.5,12.1099996567,7.36999988556,-0.10000000149,13.3400001526
"2002-04-07 16:00:00",14.0100002289,0.273000001907,113.099998474,11.6499996185,7.34999990463,0.10000000149,13.3199996948
"2002-04-07 17:00:00",13.6499996185,0.275999993086,108.099998474,11.220000267,7.30999994278,0.300000011921,12.8699998856
"2002-04-07 18:00:00",13.3000001907,0.277000010014,104.300003052,10.8999996185,7.26999998093,0.20000000298,12.8100004196
"2002-04-07 19:00:00",13.0,0.279000014067,99.5,10.4799995422,7.21999979019,-0.10000000149,12.7700004578
"2002-04-07 20:00:00",12.6899995804,0.280000001192,96.5,10.2399997711,7.17000007629,-0.20000000298,12.720000267
"2002-04-07 21:00:00",12.3400001526,0.280000001192,94.8000030518,10.1300001144,7.11999988556,-0.10000000149,12.6899995804
"2002-04-07 22:00:00",11.9899997711,0.280999988317,94.1999969482,10.1499996185,7.09999990463,-0.10000000149,12.6599998474
"2002-04-07 23:00:00",11.720000267,0.284999996424,94.0999984741,10.1999998093,7.09999990463,-0.300000011921,12.6300001144
"2002-04-08 00:00:00",11.470000267,0.287000000477,94.5999984741,10.3100004196,7.09999990463,-0.40000000596,12.6000003815
"2002-04-08 01:00:00",11.2399997711,0.287000000477,95.1999969482,10.4300003052,7.11000013351,-0.40000000596,12.5799999237
"2002-04-08 02:00:00",10.970000267,0.284999996424,95.5999984741,10.5500001907,7.11000013351,0.0,12.5399999619
"2002-04-08 03:00:00",10.7100000381,0.286000013351,96.4000015259,10.6999998093,7.11999988556,-0.20000000298,12.5200004578
"2002-04-08 04:00:00",10.4399995804,0.286000013351,96.6999969482,10.7899999619,7.11999988556,-0.300000011921,12.470000267
"2002-04-08 05:00:00",10.1599998474,0.287999987602,97.4000015259,10.9499998093,7.11999988556,0.0,12.4399995804
"2002-04-08 06:00:00",9.93999958038,0.287000000477,97.9000015259,11.0600004196,7.13000011444,-0.20000000298,12.4200000763
"2002-04-08 07:00:00",9.77000045776,0.286000013351,99.8000030518,11.3100004196,7.13000011444,0.5,12.4200000763
"2002-04-08 08:00:00",9.89000034332,0.284999996424,103.900001526,11.75,7.17000007629,-0.300000011921,13.2100000381
"2002-04-08 09:00:00",10.7399997711,0.284999996424,111.199996948,12.3299999237,7.28999996185,-0.300000011921,13.5200004578
"2002-04-08 10:00:00",11.4399995804,0.282999992371,116.900001526,12.75,7.28999996185,0.0,13.4099998474
"2002-04-08 11:00:00",13.0200004578,0.280000001192,120.300003052,12.6599998474,7.44000005722,0.0,13.3000001907
"2002-04-08 12:00:00",14.5,0.280000001192,124.800003052,12.720000267,7.51000022888,0.699999988079,13.25
"2002-04-08 13:00:00",15.4499998093,0.284999996424,123.800003052,12.3599996567,7.42000007629,0.40000000596,13.0200004578
"2002-04-08 14:00:00",15.8000001907,0.296000003815,121.0,11.9799995422,7.40999984741,0.699999988079,13.0200004578
"2002-04-08 15:00:00",16.1200008392,0.300000011921,119.699996948,11.7700004578,7.59000015259,0.899999976158,13.0100002289
"2002-04-08 16:00:00",16.2000007629,0.296000003815,119.199996948,11.7100000381,7.55999994278,1.5,12.9099998474
"2002-04-08 17:00:00",16.0499992371,0.289999991655,109.099998474,10.75,7.44999980927,1.10000002384,12.8800001144
"2002-04-08 18:00:00",15.9099998474,0.282999992371,104.0,10.279999733,7.34999990463,0.699999988079,12.8199996948
"2002-04-08 19:00:00",15.7600002289,0.282000005245,97.8000030518,9.68999958038,7.26000022888,0.5,12.779999733
"2002-04-08 20:00:00",15.5500001907,0.282000005245,91.6999969482,9.13000011444,7.19999980927,0.699999988079,12.7600002289
"2002-04-08 21:00:00",15.4300003052,0.282999992371,90.0999984741,9.0,7.13000011444,0.600000023842,12.7399997711
"2002-04-08 22:00:00",15.2399997711,0.282999992371,88.4000015259,8.86999988556,7.11000013351,0.300000011921,12.7100000381
"2002-04-08 23:00:00",15.0900001526,0.284999996424,89.4000015259,8.98999977112,7.09000015259,0.20000000298,12.6999998093
"2002-04-09 00:00:00",14.9899997711,0.287999987602,89.3000030518,9.0,7.09000015259,0.5,12.6700000763
"2002-04-09 01:00:00",14.8599996567,0.289999991655,90.4000015259,9.13000011444,7.09999990463,0.20000000298,12.6499996185
"2002-04-09 02:00:00",14.6400003433,0.291999995708,90.3000030518,9.17000007629,7.09999990463,0.0,12.6199998856
"2002-04-09 03:00:00",14.3500003815,0.293999999762,90.9000015259,9.28999996185,7.09999990463,0.40000000596,12.5799999237
"2002-04-09 04:00:00",14.1499996185,0.294999986887,92.0999984741,9.44999980927,7.09999990463,-0.10000000149,12.5500001907
"2002-04-09 05:00:00",13.9600000381,0.296000003815,93.1999969482,9.60000038147,7.11000013351,1.20000004768,12.529999733
"2002-04-09 06:00:00",13.8500003815,0.29699999094,94.1999969482,9.72999954224,7.11999988556,-0.20000000298,12.5100002289
"2002-04-09 07:00:00",13.8000001907,0.29699999094,96.4000015259,9.97000026703,7.13999986649,-0.40000000596,12.529999733
"2002-04-09 08:00:00",14.0900001526,0.298000007868,102.400001526,10.5200004578,7.19000005722,0.20000000298,13.1400003433
"2002-04-09 09:00:00",14.6199998856,0.298999994993,111.800003052,11.3599996567,7.25,0.0,13.1899995804